Location: LDNL
(36.4545°S, 141.6685°E)
Time: 19:56:15
(UTC+11:00)

deb Explorer IX - Visible Passes

Search period start: 24 February 2024 00:00
Search period end: 05 March 2024 00:00
Orbit: 516 x 916 km, 38.7° (Epoch: 23 February)

Date Brightness Start Highest point End Pass type
(mag) Time Alt. Az. Time Alt. Az. Time Alt. Az.
24 Feb ? 05:06:51 59° NNE 05:06:51 59° NNE 05:11:09 10° ENE visible
24 Feb ? 06:46:53 10° W 06:50:27 21° NNW 06:54:18 10° NNE visible
25 Feb ? 04:14:45 12° ENE 04:14:45 12° ENE 04:15:09 10° ENE visible
25 Feb ? 05:53:53 27° NW 05:54:44 29° NNW 05:59:04 10° NNE visible
26 Feb ? 05:01:57 19° NE 05:01:57 19° NE 05:03:30 10° NE visible
26 Feb ? 06:42:22 10° NW 06:43:00 10° NW 06:43:39 10° NNW visible
27 Feb ? 05:49:17 13° N 05:49:17 13° N 05:50:11 10° N visible
27 Feb ? 21:50:56 10° NNW 21:52:40 19° N 21:52:40 19° N visible
28 Feb ? 20:55:59 10° N 20:58:42 16° NNE 21:00:26 13° ENE visible
28 Feb ? 22:38:35 10° WNW 22:39:34 17° WNW 22:39:34 17° WNW visible
29 Feb ? 21:42:49 10° NW 21:46:56 44° NNE 21:47:09 43° NE visible
01 Mar ? 20:47:13 10° NNW 20:51:11 30° NNE 20:54:34 12° E visible
01 Mar ? 22:31:08 10° WNW 22:33:39 34° WNW 22:33:39 34° WNW visible
02 Mar ? 21:35:06 10° WNW 21:39:32 73° NNE 21:40:54 40° E visible
02 Mar ? 23:19:53 10° W 23:20:00 11° W 23:20:00 11° W visible
03 Mar ? 20:39:08 10° NW 20:43:40 53° NNE 20:47:47 10° E visible
03 Mar ? 22:23:45 10° W 22:27:07 49° WSW 22:27:07 49° WSW visible
04 Mar ? 21:27:33 10° W 21:32:07 80° SSW 21:34:07 30° ESE visible
04 Mar ? 23:12:29 10° WSW 23:13:11 14° WSW 23:13:11 14° WSW visible
